Погода в Кособе

Россия / Республика Дагестан     42°14′34″N   46°22′05″E
темп.,
°C
ветер,
м/с
пор.,
м/с
влажн.,
%
обл.,
%
осадки,
мм/ч
давл.,
гПа
погр.,
м
25 июня, сб
сб2500:00+5ююз229956 1.3 101474
03:00+5ю229849 1.3 101558
06:00+7ююз23928 0.1 101496
09:00+13ююз45674 0.8 1012983
12:00+15ююз47598 1.3 10111716
15:00+14ююз476010 2.1 10111526
18:00+13зюз3364100 0.2 1012239
21:00+8сз0190100 2.8 101529
26 июня, вс
вс2600:00+7ссв239598 2.6 101558
03:00+6юв1190100 3.0 101311
06:00+9ю228699 1.1 101258
09:00+11ююв3385100 2.9 1011398
12:00+13юз246893 1.3 1010537
15:00+14ю2365100 3.6 10081124
18:00+12ююв2378100 3.3 1010198
21:00+8ююв1193100 4.9 101430
27 июня, пн
пн2700:00+7вюв019214 0.0 101410
03:00+6юв01870 0.0 101310
06:00+11юв00765 0.0 101345
09:00+17юв12450 0.0 10111449
12:00+20ююв153813 0.4 10092611
15:00+17в23576 2.1 10101296
18:00+13св227935 2.1 1013318
21:00+9св2295100 3.4 101639
28 июня, вт
вт2800:00+9ююв1191100 1.0 101515
03:00+9ссз228362 1.1 101413
06:00+10ю11780 0.0 101370
09:00+16ююз23540 0.0 10111037
12:00+19юз343910 0.1 10092279
15:00+18ююз23426 0.9 10091883
18:00+14с22738 1.6 1012113
21:00+8ссв339342 3.4 101675
29 июня, ср
ср2900:00+9в2295100 3.2 101685
03:00+7св11925 3.7 101511
06:00+9св239113 0.0 1015166
09:00+13всв217237 0.3 1014659
12:00+15ююв01702 2.6 1013860
15:00+14ю01711 8.3 1013829
18:00+12всв118315 4.2 1014198
21:00+8св2296100 6.6 101657